| time (UTC) | temp F | wind direction | speed MPH | gust MPH | rain 1hr in | rain 24hr in | rain mn in | humidity % | barometer mb |
| 20260906223714 | 99 | 68 | 3.0 | 9.0 | 0.00 | 0.00 | 0.00 | 43 | 1010.3 |
| 20260906223003 | 100 | 53 | 4.0 | 11.0 | 0.00 | 0.00 | 0.00 | 43 | 1010.4 |
| 20260906222503 | 99 | 53 | 3.0 | 11.0 | 0.00 | 0.00 | 0.00 | 42 | 1010.4 |
| 20260906222003 | 99 | 56 | 3.0 | 6.0 | 0.00 | 0.00 | 0.00 | 43 | 1010.4 |
| 20260906221503 | 99 | 62 | 3.0 | 8.0 | 0.00 | 0.00 | 0.00 | 43 | 1010.5 |
| 20260906221003 | 99 | 68 | 3.0 | 9.0 | 0.00 | 0.00 | 0.00 | 44 | 1010.5 |
| 20260906220503 | 99 | 78 | 3.0 | 9.0 | 0.00 | 0.00 | 0.00 | 44 | 1010.4 |
| 20260906220003 | 99 | 93 | 3.0 | 8.0 | 0.00 | 0.00 | 0.00 | 44 | 1010.5 |
| 20260906215503 | 99 | 98 | 3.0 | 8.0 | 0.00 | 0.00 | 0.00 | 43 | 1010.6 |
| 20260906215003 | 98 | 92 | 2.0 | 7.0 | 0.00 | 0.00 | 0.00 | 45 | 1010.7 |
| 20260906214503 | 98 | 95 | 2.0 | 5.0 | 0.00 | 0.00 | 0.00 | 45 | 1010.7 |
| 20260906214003 | 98 | 84 | 3.0 | 5.0 | 0.00 | 0.00 | 0.00 | 45 | 1010.9 |
| 20260906213503 | 98 | 87 | 3.0 | 7.0 | 0.00 | 0.00 | 0.00 | 45 | 1010.9 |
| 20260906213003 | 99 | 95 | 3.0 | 9.0 | 0.00 | 0.00 | 0.00 | 44 | 1010.9 |
| 20260906212503 | 99 | 84 | 3.0 | 9.0 | 0.00 | 0.00 | 0.00 | 43 | 1011.1 |
| 20260906212003 | 100 | 80 | 4.0 | 10.0 | 0.00 | 0.00 | 0.00 | 42 | 1011.1 |
| 20260906211503 | 100 | 86 | 3.0 | 10.0 | 0.00 | 0.00 | 0.00 | 43 | 1011.2 |
| 20260906211003 | 99 | 72 | 3.0 | 9.0 | 0.00 | 0.00 | 0.00 | 45 | 1011.2 |
| 20260906210503 | 100 | 61 | 3.0 | 9.0 | 0.00 | 0.00 | 0.00 | 44 | 1011.4 |
| 20260906210003 | 100 | 56 | 2.0 | 8.0 | 0.00 | 0.00 | 0.00 | 44 | 1011.4 |
| 20260906205503 | 99 | 65 | 3.0 | 9.0 | 0.00 | 0.00 | 0.00 | 45 | 1011.5 |
| 20260906205003 | 99 | 74 | 3.0 | 9.0 | 0.00 | 0.00 | 0.00 | 45 | 1011.5 |
| 20260906204713 | 99 | 75 | 3.0 | 9.0 | 0.00 | 0.00 | 0.00 | 46 | 1011.7 |
| 20260906204003 | 99 | 66 | 3.0 | 9.0 | 0.00 | 0.00 | 0.00 | 45 | 1011.7 |
| 20260906203503 | 99 | 71 | 2.0 | 9.0 | 0.00 | 0.00 | 0.00 | 46 | 1011.6 |
| 20260906203003 | 98 | 67 | 3.0 | 9.0 | 0.00 | 0.00 | 0.00 | 46 | 1011.7 |
| 20260906202503 | 98 | 67 | 4.0 | 11.0 | 0.00 | 0.00 | 0.00 | 45 | 1011.9 |
| 20260906202003 | 98 | 81 | 3.0 | 11.0 | 0.00 | 0.00 | 0.00 | 46 | 1011.8 |
| 20260906201503 | 98 | 84 | 3.0 | 11.0 | 0.00 | 0.00 | 0.00 | 45 | 1011.8 |
| 20260906201003 | 98 | 81 | 3.0 | 10.0 | 0.00 | 0.00 | 0.00 | 46 | 1011.8 |
| 20260906200503 | 98 | 78 | 4.0 | 10.0 | 0.00 | 0.00 | 0.00 | 44 | 1012.0 |
| 20260906200003 | 98 | 72 | 3.0 | 8.0 | 0.00 | 0.00 | 0.00 | 46 | 1012.0 |
| 20260906195712 | 98 | 75 | 2.0 | 7.0 | 0.00 | 0.00 | 0.00 | 47 | 1012.0 |
| 20260906195003 | 99 | 86 | 4.0 | 10.0 | 0.00 | 0.00 | 0.00 | 46 | 1012.0 |
| 20260906194503 | 98 | 77 | 3.0 | 12.0 | 0.00 | 0.00 | 0.00 | 46 | 1012.1 |
| 20260906194003 | 99 | 78 | 2.0 | 12.0 | 0.00 | 0.00 | 0.00 | 46 | 1012.1 |
| 20260906193503 | 100 | 72 | 3.0 | 10.0 | 0.00 | 0.00 | 0.00 | 46 | 1012.2 |
| 20260906193003 | 99 | 66 | 3.0 | 10.0 | 0.00 | 0.00 | 0.00 | 46 | 1012.3 |
| 20260906192503 | 99 | 73 | 3.0 | 8.0 | 0.00 | 0.00 | 0.00 | 48 | 1012.3 |
| 20260906192003 | 98 | 75 | 4.0 | 8.0 | 0.00 | 0.00 | 0.00 | 47 | 1012.4 |
| 20260906191503 | 98 | 82 | 3.0 | 8.0 | 0.00 | 0.00 | 0.00 | 47 | 1012.4 |
| 20260906191003 | 99 | 97 | 3.0 | 10.0 | 0.00 | 0.00 | 0.00 | 47 | 1012.5 |
| 20260906190503 | 99 | 97 | 4.0 | 10.0 | 0.00 | 0.00 | 0.00 | 47 | 1012.5 |
| 20260906190003 | 99 | 101 | 4.0 | 14.0 | 0.00 | 0.00 | 0.00 | 46 | 1012.6 |
| 20260906185712 | 98 | 96 | 4.0 | 14.0 | 0.00 | 0.00 | 0.00 | 47 | 1012.6 |
| 20260906185003 | 98 | 87 | 4.0 | 9.0 | 0.00 | 0.00 | 0.00 | 48 | 1012.6 |
| 20260906184503 | 98 | 99 | 4.0 | 9.0 | 0.00 | 0.00 | 0.00 | 48 | 1012.7 |
| 20260906184003 | 98 | 95 | 5.0 | 12.0 | 0.00 | 0.00 | 0.00 | 48 | 1012.7 |
| 20260906183503 | 98 | 85 | 3.0 | 12.0 | 0.00 | 0.00 | 0.00 | 48 | 1012.8 |
| 20260906183003 | 98 | 90 | 3.0 | 9.0 | 0.00 | 0.00 | 0.00 | 49 | 1012.8 |
| 20260906182503 | 98 | 93 | 3.0 | 9.0 | 0.00 | 0.00 | 0.00 | 49 | 1012.8 |
| 20260906182213 | 97 | 92 | 3.0 | 14.0 | 0.00 | 0.00 | 0.00 | 49 | 1012.9 |
| 20260906181714 | 96 | 76 | 3.0 | 14.0 | 0.00 | 0.00 | 0.00 | 49 | 1013.0 |
| 20260906181213 | 97 | 63 | 3.0 | 8.0 | 0.00 | 0.00 | 0.00 | 50 | 1013.0 |
| 20260906180503 | 97 | 74 | 3.0 | 8.0 | 0.00 | 0.00 | 0.00 | 50 | 1013.2 |
| 20260906180003 | 97 | 96 | 3.0 | 8.0 | 0.00 | 0.00 | 0.00 | 49 | 1013.2 |
| 20260906175503 | 97 | 107 | 3.0 | 8.0 | 0.00 | 0.00 | 0.00 | 50 | 1013.3 |
| 20260906175003 | 97 | 100 | 3.0 | 8.0 | 0.00 | 0.00 | 0.00 | 50 | 1013.4 |
| 20260906174503 | 96 | 76 | 3.0 | 8.0 | 0.00 | 0.00 | 0.00 | 51 | 1013.4 |
| 20260906174003 | 97 | 53 | 3.0 | 10.0 | 0.00 | 0.00 | 0.00 | 51 | 1013.6 |
| 20260906173714 | 97 | 50 | 3.0 | 10.0 | 0.00 | 0.00 | 0.00 | 51 | 1013.6 |
| 20260906173003 | 96 | 61 | 3.0 | 9.0 | 0.00 | 0.00 | 0.00 | 51 | 1013.7 |
| 20260906172714 | 96 | 63 | 3.0 | 9.0 | 0.00 | 0.00 | 0.00 | 51 | 1013.8 |
| 20260906172213 | 96 | 62 | 3.0 | 8.0 | 0.00 | 0.00 | 0.00 | 52 | 1013.8 |
| 20260906171503 | 96 | 67 | 3.0 | 7.0 | 0.00 | 0.00 | 0.00 | 53 | 1013.8 |
| 20260906171003 | 95 | 68 | 3.0 | 8.0 | 0.00 | 0.00 | 0.00 | 55 | 1013.8 |
| 20260906170503 | 96 | 57 | 3.0 | 8.0 | 0.00 | 0.00 | 0.00 | 53 | 1013.9 |
| 20260906170003 | 96 | 71 | 3.0 | 6.0 | 0.00 | 0.00 | 0.00 | 53 | 1013.9 |
| 20260906165714 | 96 | 83 | 3.0 | 6.0 | 0.00 | 0.00 | 0.00 | 54 | 1014.0 |
| 20260906165003 | 94 | 93 | 2.0 | 6.0 | 0.00 | 0.00 | 0.00 | 55 | 1014.1 |
| 20260906164503 | 95 | 72 | 2.0 | 4.0 | 0.00 | 0.00 | 0.00 | 55 | 1014.3 |
| 20260906164003 | 94 | 53 | 2.0 | 4.0 | 0.00 | 0.00 | 0.00 | 56 | 1014.3 |
| 20260906163503 | 94 | 52 | 2.0 | 5.0 | 0.00 | 0.00 | 0.00 | 57 | 1014.3 |
| 20260906163212 | 94 | 69 | 2.0 | 8.0 | 0.00 | 0.00 | 0.00 | 57 | 1014.3 |
| 20260906162713 | 94 | 88 | 3.0 | 8.0 | 0.00 | 0.00 | 0.00 | 57 | 1014.3 |
| 20260906162003 | 94 | 62 | 2.0 | 8.0 | 0.00 | 0.00 | 0.00 | 57 | 1014.2 |
| 20260906161503 | 94 | 71 | 2.0 | 7.0 | 0.00 | 0.00 | 0.00 | 57 | 1014.3 |
| 20260906161003 | 94 | 83 | 2.0 | 6.0 | 0.00 | 0.00 | 0.00 | 58 | 1014.3 |
| 20260906160713 | 93 | 96 | 2.0 | 4.0 | 0.00 | 0.00 | 0.00 | 59 | 1014.3 |
| 20260906160003 | 93 | 102 | 2.0 | 8.0 | 0.00 | 0.00 | 0.00 | 59 | 1014.3 |
| 20260906155503 | 93 | 98 | 2.0 | 8.0 | 0.00 | 0.00 | 0.00 | 59 | 1014.3 |
| 20260906155003 | 93 | 116 | 2.0 | 7.0 | 0.00 | 0.00 | 0.00 | 60 | 1014.2 |
| 20260906154503 | 92 | 102 | 2.0 | 7.0 | 0.00 | 0.00 | 0.00 | 62 | 1014.3 |
| 20260906154003 | 92 | 89 | 2.0 | 5.0 | 0.00 | 0.00 | 0.00 | 61 | 1014.2 |
| 20260906153503 | 92 | 98 | 2.0 | 6.0 | 0.00 | 0.00 | 0.00 | 62 | 1014.2 |
| 20260906153003 | 92 | 91 | 2.0 | 7.0 | 0.00 | 0.00 | 0.00 | 63 | 1014.0 |
| 20260906152713 | 92 | 88 | 2.0 | 7.0 | 0.00 | 0.00 | 0.00 | 64 | 1014.0 |
| 20260906152003 | 91 | 142 | 1.0 | 4.0 | 0.00 | 0.00 | 0.00 | 65 | 1014.0 |
| 20260906151503 | 90 | 123 | 2.0 | 6.0 | 0.00 | 0.00 | 0.00 | 65 | 1013.9 |
| 20260906151003 | 90 | 115 | 2.0 | 6.0 | 0.00 | 0.00 | 0.00 | 66 | 1013.9 |
| 20260906150713 | 90 | 100 | 1.0 | 4.0 | 0.00 | 0.00 | 0.00 | 66 | 1013.9 |
| 20260906150003 | 90 | 65 | 1.0 | 4.0 | 0.00 | 0.00 | 0.00 | 67 | 1013.7 |
| 20260906145503 | 89 | 75 | 1.0 | 4.0 | 0.00 | 0.00 | 0.00 | 68 | 1013.7 |
| 20260906145003 | 89 | 85 | 1.0 | 6.0 | 0.00 | 0.00 | 0.00 | 68 | 1013.6 |
| 20260906144503 | 88 | 69 | 1.0 | 6.0 | 0.00 | 0.00 | 0.00 | 69 | 1013.6 |
| 20260906144003 | 88 | 62 | 1.0 | 3.0 | 0.00 | 0.00 | 0.00 | 70 | 1013.8 |
| 20260906143503 | 88 | 75 | 1.0 | 3.0 | 0.00 | 0.00 | 0.00 | 70 | 1013.7 |
| 20260906143003 | 88 | 77 | 1.0 | 3.0 | 0.00 | 0.00 | 0.00 | 70 | 1013.7 |
| 20260906142503 | 88 | 76 | 1.0 | 3.0 | 0.00 | 0.00 | 0.00 | 70 | 1013.7 |
| 20260906142003 | 87 | 72 | 1.0 | 4.0 | 0.00 | 0.00 | 0.00 | 72 | 1013.7 |
| 20260906141503 | 86 | 60 | 1.0 | 4.0 | 0.00 | 0.00 | 0.00 | 72 | 1013.6 |
| 20260906141003 | 86 | 37 | 1.0 | 4.0 | 0.00 | 0.00 | 0.00 | 73 | 1013.7 |
| 20260906140503 | 85 | 28 | 1.0 | 2.0 | 0.00 | 0.00 | 0.00 | 73 | 1013.7 |
| 20260906140213 | 85 | 27 | 0.0 | 2.0 | 0.00 | 0.00 | 0.00 | 74 | 1013.6 |
| 20260906135503 | 85 | 0 | 0.0 | 0.0 | 0.00 | 0.00 | 0.00 | 75 | 1013.8 |
| 20260906135213 | 84 | 0 | 0.0 | 0.0 | 0.00 | 0.00 | 0.00 | 75 | 1013.9 |
| 20260906134503 | 84 | 0 | 0.0 | 0.0 | 0.00 | 0.00 | 0.00 | 76 | 1013.8 |
| 20260906134003 | 83 | 0 | 0.0 | 0.0 | 0.00 | 0.00 | 0.00 | 77 | 1013.8 |
| 20260906133503 | 83 | 0 | 0.0 | 0.0 | 0.00 | 0.00 | 0.00 | 78 | 1013.9 |
| 20260906133003 | 82 | 0 | 0.0 | 0.0 | 0.00 | 0.00 | 0.00 | 79 | 1013.9 |
| 20260906132503 | 82 | 0 | 0.0 | 0.0 | 0.00 | 0.00 | 0.00 | 80 | 1013.8 |
| 20260906132003 | 81 | 0 | 0.0 | 0.0 | 0.00 | 0.00 | 0.00 | 80 | 1013.9 |
| 20260906131503 | 81 | 0 | 0.0 | 0.0 | 0.00 | 0.00 | 0.00 | 82 | 1013.9 |
| 20260906131003 | 80 | 0 | 0.0 | 0.0 | 0.00 | 0.00 | 0.00 | 82 | 1013.7 |
| 20260906130503 | 80 | 0 | 0.0 | 0.0 | 0.00 | 0.00 | 0.00 | 84 | 1013.7 |
| 20260906130213 | 80 | 0 | 0.0 | 0.0 | 0.00 | 0.00 | 0.00 | 84 | 1013.6 |
| 20260906125503 | 79 | 0 | 0.0 | 0.0 | 0.00 | 0.00 | 0.00 | 85 | 1013.6 |
| 20260906125003 | 78 | 0 | 0.0 | 0.0 | 0.00 | 0.00 | 0.00 | 86 | 1013.5 |
| 20260906124503 | 78 | 0 | 0.0 | 0.0 | 0.00 | 0.00 | 0.00 | 86 | 1013.5 |
| 20260906124003 | 78 | 0 | 0.0 | 0.0 | 0.00 | 0.00 | 0.00 | 86 | 1013.5 |
| 20260906123714 | 78 | 0 | 0.0 | 0.0 | 0.00 | 0.00 | 0.00 | 87 | 1013.4 |
| 20260906123003 | 77 | 0 | 0.0 | 0.0 | 0.00 | 0.00 | 0.00 | 86 | 1013.4 |
| 20260906122503 | 78 | 0 | 0.0 | 0.0 | 0.00 | 0.00 | 0.00 | 86 | 1013.4 |
| 20260906122003 | 78 | 0 | 0.0 | 0.0 | 0.00 | 0.00 | 0.00 | 86 | 1013.3 |
| 20260906121714 | 78 | 0 | 0.0 | 0.0 | 0.00 | 0.00 | 0.00 | 86 | 1013.4 |
| 20260906121003 | 78 | 0 | 0.0 | 0.0 | 0.00 | 0.00 | 0.00 | 86 | 1013.2 |
| 20260906120714 | 78 | 0 | 0.0 | 0.0 | 0.00 | 0.00 | 0.00 | 86 | 1013.1 |
| 20260906120003 | 77 | 0 | 0.0 | 0.0 | 0.00 | 0.00 | 0.00 | 86 | 1013.1 |
| 20260906115503 | 77 | 0 | 0.0 | 0.0 | 0.00 | 0.00 | 0.00 | 86 | 1013.0 |
| 20260906115003 | 77 | 0 | 0.0 | 0.0 | 0.00 | 0.00 | 0.00 | 86 | 1013.0 |
| 20260906114503 | 77 | 0 | 0.0 | 0.0 | 0.00 | 0.00 | 0.00 | 86 | 1013.0 |
| 20260906114003 | 78 | 0 | 0.0 | 0.0 | 0.00 | 0.00 | 0.00 | 86 | 1013.0 |
| 20260906113503 | 78 | 0 | 0.0 | 0.0 | 0.00 | 0.00 | 0.00 | 85 | 1012.9 |
| 20260906113212 | 78 | 0 | 0.0 | 0.0 | 0.00 | 0.00 | 0.00 | 85 | 1012.9 |
| 20260906112503 | 78 | 0 | 0.0 | 0.0 | 0.00 | 0.00 | 0.00 | 85 | 1012.9 |
| 20260906112003 | 78 | 0 | 0.0 | 0.0 | 0.00 | 0.00 | 0.00 | 86 | 1012.8 |
| 20260906111713 | 78 | 0 | 0.0 | 0.0 | 0.00 | 0.00 | 0.00 | 85 | 1012.8 |
| 20260906111003 | 78 | 0 | 0.0 | 0.0 | 0.00 | 0.00 | 0.00 | 86 | 1012.8 |
| 20260906110503 | 78 | 0 | 0.0 | 0.0 | 0.00 | 0.00 | 0.00 | 86 | 1012.8 |
| 20260906110003 | 78 | 0 | 0.0 | 0.0 | 0.00 | 0.00 | 0.00 | 85 | 1012.6 |
| 20260906105503 | 78 | 0 | 0.0 | 0.0 | 0.00 | 0.00 | 0.00 | 85 | 1012.6 |
| 20260906105003 | 78 | 0 | 0.0 | 0.0 | 0.00 | 0.00 | 0.00 | 85 | 1012.6 |
| 20260906104503 | 78 | 0 | 0.0 | 0.0 | 0.00 | 0.00 | 0.00 | 85 | 1012.5 |
| 20260906104003 | 78 | 0 | 0.0 | 0.0 | 0.00 | 0.00 | 0.00 | 84 | 1012.4 |
| 20260906103503 | 78 | 0 | 0.0 | 0.0 | 0.00 | 0.00 | 0.00 | 84 | 1012.5 |
| 20260906103003 | 78 | 0 | 0.0 | 0.0 | 0.00 | 0.00 | 0.00 | 84 | 1012.4 |
| 20260906102503 | 79 | 0 | 0.0 | 0.0 | 0.00 | 0.00 | 0.00 | 83 | 1012.5 |
| 20260906102003 | 79 | 0 | 0.0 | 0.0 | 0.00 | 0.00 | 0.00 | 83 | 1012.5 |
| 20260906101713 | 79 | 0 | 0.0 | 0.0 | 0.00 | 0.00 | 0.00 | 83 | 1012.5 |
| 20260906101003 | 79 | 0 | 0.0 | 0.0 | 0.00 | 0.00 | 0.00 | 83 | 1012.5 |
| 20260906100503 | 79 | 0 | 0.0 | 0.0 | 0.00 | 0.00 | 0.00 | 82 | 1012.4 |
| 20260906100003 | 79 | 0 | 0.0 | 0.0 | 0.00 | 0.00 | 0.00 | 82 | 1012.4 |
| 20260906095713 | 79 | 0 | 0.0 | 0.0 | 0.00 | 0.00 | 0.00 | 82 | 1012.4 |
| 20260906095003 | 79 | 0 | 0.0 | 0.0 | 0.00 | 0.00 | 0.00 | 82 | 1012.3 |
| 20260906094503 | 80 | 0 | 0.0 | 0.0 | 0.00 | 0.00 | 0.00 | 81 | 1012.2 |
| 20260906094003 | 80 | 0 | 0.0 | 0.0 | 0.00 | 0.00 | 0.00 | 80 | 1012.2 |
| 20260906093713 | 80 | 0 | 0.0 | 0.0 | 0.00 | 0.00 | 0.00 | 80 | 1012.2 |
| 20260906093214 | 80 | 0 | 0.0 | 0.0 | 0.00 | 0.00 | 0.00 | 80 | 1012.1 |
| 20260906092503 | 80 | 0 | 0.0 | 0.0 | 0.00 | 0.00 | 0.00 | 80 | 1012.1 |
| 20260906092003 | 81 | 0 | 0.0 | 0.0 | 0.00 | 0.00 | 0.00 | 79 | 1012.2 |
| 20260906091503 | 81 | 0 | 0.0 | 0.0 | 0.00 | 0.00 | 0.00 | 79 | 1012.1 |
| 20260906091003 | 81 | 0 | 0.0 | 0.0 | 0.00 | 0.00 | 0.00 | 78 | 1011.9 |
| 20260906090503 | 82 | 0 | 0.0 | 0.0 | 0.00 | 0.00 | 0.00 | 77 | 1011.9 |
| 20260906090003 | 82 | 157 | 0.0 | 2.0 | 0.00 | 0.00 | 0.00 | 77 | 1012.0 |
| 20260906085503 | 82 | 160 | 0.0 | 2.0 | 0.00 | 0.00 | 0.00 | 76 | 1012.0 |
| 20260906085003 | 82 | 152 | 1.0 | 3.0 | 0.00 | 0.00 | 0.00 | 76 | 1011.9 |
| 20260906084503 | 82 | 132 | 1.0 | 6.0 | 0.00 | 0.00 | 0.00 | 76 | 1011.9 |
| 20260906084213 | 82 | 125 | 1.0 | 6.0 | 0.00 | 0.00 | 0.00 | 76 | 1011.9 |
| 20260906083503 | 82 | 111 | 1.0 | 3.0 | 0.00 | 0.00 | 0.00 | 76 | 1012.0 |
| 20260906083003 | 82 | 111 | 1.0 | 3.0 | 0.00 | 0.00 | 0.00 | 76 | 1011.9 |
| 20260906082503 | 83 | 126 | 2.0 | 4.0 | 0.00 | 0.00 | 0.00 | 76 | 1011.8 |
| 20260906082003 | 83 | 142 | 2.0 | 4.0 | 0.00 | 0.00 | 0.00 | 75 | 1011.8 |
| 20260906081503 | 83 | 143 | 1.0 | 4.0 | 0.00 | 0.00 | 0.00 | 75 | 1011.7 |
| 20260906081003 | 83 | 135 | 2.0 | 5.0 | 0.00 | 0.00 | 0.00 | 75 | 1011.6 |
| 20260906080503 | 83 | 142 | 2.0 | 5.0 | 0.00 | 0.00 | 0.00 | 75 | 1011.7 |
| 20260906080003 | 83 | 146 | 2.0 | 4.0 | 0.00 | 0.00 | 0.00 | 74 | 1011.8 |
| 20260906075503 | 83 | 129 | 2.0 | 6.0 | 0.00 | 0.00 | 0.00 | 74 | 1011.9 |
| 20260906075003 | 84 | 120 | 2.0 | 6.0 | 0.00 | 0.00 | 0.00 | 74 | 1012.0 |
| 20260906074503 | 84 | 118 | 1.0 | 4.0 | 0.00 | 0.00 | 0.00 | 74 | 1012.1 |
| 20260906074003 | 84 | 124 | 1.0 | 7.0 | 0.00 | 0.00 | 0.00 | 74 | 1012.1 |
| 20260906073503 | 84 | 128 | 2.0 | 7.0 | 0.00 | 0.00 | 0.00 | 73 | 1012.1 |
| 20260906073003 | 84 | 121 | 1.0 | 4.0 | 0.00 | 0.00 | 0.00 | 74 | 1012.2 |
| 20260906072503 | 84 | 103 | 1.0 | 3.0 | 0.00 | 0.00 | 0.00 | 74 | 1012.2 |
| 20260906072003 | 84 | 104 | 1.0 | 3.0 | 0.00 | 0.00 | 0.00 | 74 | 1012.2 |
| 20260906071714 | 84 | 110 | 1.0 | 2.0 | 0.00 | 0.00 | 0.00 | 74 | 1012.1 |
| 20260906071213 | 84 | 124 | 1.0 | 3.0 | 0.00 | 0.00 | 0.00 | 73 | 1012.1 |
| 20260906070714 | 84 | 128 | 1.0 | 3.0 | 0.00 | 0.00 | 0.00 | 73 | 1012.0 |
| 20260906070003 | 84 | 142 | 1.0 | 3.0 | 0.00 | 0.00 | 0.00 | 74 | 1012.1 |
| 20260906065714 | 84 | 146 | 1.0 | 3.0 | 0.00 | 0.00 | 0.00 | 74 | 1012.1 |
| 20260906065003 | 84 | 133 | 1.0 | 3.0 | 0.00 | 0.00 | 0.00 | 73 | 1012.0 |
| 20260906064503 | 84 | 129 | 1.0 | 3.0 | 0.00 | 0.00 | 0.00 | 73 | 1012.1 |
| 20260906064213 | 84 | 125 | 1.0 | 3.0 | 0.00 | 0.00 | 0.00 | 73 | 1012.2 |
| 20260906063503 | 84 | 116 | 1.0 | 4.0 | 0.00 | 0.00 | 0.00 | 73 | 1012.3 |
| 20260906063003 | 84 | 129 | 1.0 | 4.0 | 0.00 | 0.00 | 0.00 | 73 | 1012.3 |
| 20260906062503 | 84 | 152 | 1.0 | 3.0 | 0.00 | 0.00 | 0.00 | 73 | 1012.2 |
| 20260906062003 | 84 | 140 | 1.0 | 3.0 | 0.00 | 0.00 | 0.00 | 73 | 1012.2 |
| 20260906061714 | 84 | 137 | 1.0 | 3.0 | 0.00 | 0.00 | 0.00 | 73 | 1012.2 |
| 20260906061003 | 84 | 134 | 1.0 | 3.0 | 0.00 | 0.00 | 0.00 | 72 | 1012.2 |
| 20260906060503 | 84 | 133 | 0.0 | 3.0 | 0.00 | 0.00 | 0.00 | 72 | 1012.3 |
| 20260906060003 | 85 | 134 | 0.0 | 3.0 | 0.00 | 0.00 | 0.00 | 72 | 1012.3 |
| 20260906055713 | 85 | 134 | 0.0 | 3.0 | 0.00 | 0.00 | 0.00 | 72 | 1012.4 |
| 20260906055212 | 85 | 134 | 0.0 | 2.0 | 0.00 | 0.00 | 0.00 | 72 | 1012.3 |
| 20260906054503 | 85 | 134 | 0.0 | 2.0 | 0.00 | 0.00 | 0.00 | 71 | 1012.3 |
| 20260906054003 | 85 | 134 | 0.0 | 2.0 | 0.00 | 0.00 | 0.00 | 70 | 1012.3 |
| 20260906053503 | 85 | 134 | 0.0 | 2.0 | 0.00 | 0.00 | 0.00 | 70 | 1012.2 |
| 20260906053003 | 86 | 134 | 0.0 | 2.0 | 0.00 | 0.00 | 0.00 | 70 | 1012.3 |
| 20260906052713 | 86 | 134 | 0.0 | 2.0 | 0.00 | 0.00 | 0.00 | 70 | 1012.3 |
| 20260906052003 | 86 | 135 | 1.0 | 4.0 | 0.00 | 0.00 | 0.00 | 69 | 1012.4 |
| 20260906051503 | 86 | 139 | 1.0 | 4.0 | 0.00 | 0.00 | 0.00 | 69 | 1012.4 |
| 20260906051003 | 86 | 134 | 1.0 | 4.0 | 0.00 | 0.00 | 0.00 | 69 | 1012.4 |
| 20260906050713 | 86 | 125 | 1.0 | 4.0 | 0.00 | 0.00 | 0.00 | 69 | 1012.3 |
| 20260906050003 | 86 | 114 | 1.0 | 3.0 | 0.00 | 0.00 | 0.00 | 69 | 1012.4 |
| 20260906045713 | 86 | 121 | 2.0 | 4.0 | 0.00 | 0.00 | 0.00 | 69 | 1012.4 |
| 20260906045003 | 86 | 122 | 1.0 | 4.0 | 0.00 | 0.00 | 0.00 | 68 | 1012.2 |
| 20260906044503 | 86 | 104 | 0.0 | 2.0 | 0.00 | 0.00 | 0.00 | 68 | 1012.2 |
| 20260906044214 | 86 | 104 | 0.0 | 2.0 | 0.00 | 0.00 | 0.00 | 67 | 1012.2 |
| 20260906043503 | 87 | 104 | 0.0 | 2.0 | 0.00 | 0.00 | 0.00 | 66 | 1012.2 |
| 20260906043003 | 87 | 104 | 0.0 | 2.0 | 0.00 | 0.00 | 0.00 | 66 | 1012.3 |
| 20260906042503 | 87 | 104 | 1.0 | 4.0 | 0.00 | 0.00 | 0.00 | 66 | 1012.2 |
| 20260906042003 | 87 | 119 | 1.0 | 5.0 | 0.00 | 0.00 | 0.00 | 66 | 1012.1 |
| 20260906041503 | 87 | 137 | 1.0 | 5.0 | 0.00 | 0.00 | 0.00 | 65 | 1012.1 |
| 20260906041214 | 88 | 140 | 1.0 | 3.0 | 0.00 | 0.00 | 0.00 | 65 | 1012.1 |
| 20260906040503 | 88 | 132 | 1.0 | 5.0 | 0.00 | 0.00 | 0.00 | 65 | 1012.1 |
| 20260906040003 | 88 | 126 | 2.0 | 4.0 | 0.00 | 0.00 | 0.00 | 64 | 1012.0 |
| 20260906035503 | 88 | 122 | 2.0 | 5.0 | 0.00 | 0.00 | 0.00 | 64 | 1012.0 |
| 20260906035003 | 88 | 109 | 2.0 | 6.0 | 0.00 | 0.00 | 0.00 | 64 | 1012.1 |
| 20260906034503 | 88 | 111 | 2.0 | 6.0 | 0.00 | 0.00 | 0.00 | 63 | 1012.2 |
| 20260906034003 | 88 | 123 | 2.0 | 6.0 | 0.00 | 0.00 | 0.00 | 63 | 1012.2 |
| 20260906033503 | 88 | 112 | 2.0 | 6.0 | 0.00 | 0.00 | 0.00 | 63 | 1012.1 |
| 20260906033003 | 88 | 109 | 2.0 | 6.0 | 0.00 | 0.00 | 0.00 | 62 | 1012.1 |
| 20260906032503 | 88 | 131 | 2.0 | 7.0 | 0.00 | 0.00 | 0.00 | 62 | 1012.1 |
| 20260906032003 | 89 | 130 | 2.0 | 7.0 | 0.00 | 0.00 | 0.00 | 61 | 1012.1 |
| 20260906031503 | 89 | 123 | 3.0 | 9.0 | 0.00 | 0.00 | 0.00 | 61 | 1012.0 |
| 20260906031003 | 89 | 118 | 3.0 | 9.0 | 0.00 | 0.00 | 0.00 | 61 | 1012.1 |
| 20260906030712 | 89 | 114 | 3.0 | 9.0 | 0.00 | 0.00 | 0.00 | 61 | 1012.1 |
| 20260906030003 | 89 | 110 | 3.0 | 8.0 | 0.00 | 0.00 | 0.00 | 61 | 1012.2 |
| 20260906025503 | 89 | 108 | 3.0 | 8.0 | 0.00 | 0.00 | 0.00 | 60 | 1012.1 |
| 20260906025213 | 90 | 107 | 3.0 | 8.0 | 0.00 | 0.00 | 0.00 | 60 | 1012.1 |
| 20260906024503 | 90 | 114 | 4.0 | 11.0 | 0.00 | 0.00 | 0.00 | 60 | 1011.9 |
| 20260906024003 | 90 | 112 | 4.0 | 11.0 | 0.00 | 0.00 | 0.00 | 59 | 1011.9 |
| 20260906023503 | 90 | 110 | 3.0 | 9.0 | 0.00 | 0.00 | 0.00 | 59 | 1011.8 |
| 20260906023003 | 90 | 112 | 3.0 | 7.0 | 0.00 | 0.00 | 0.00 | 59 | 1011.6 |
| 20260906022503 | 90 | 114 | 3.0 | 9.0 | 0.00 | 0.00 | 0.00 | 58 | 1011.5 |
| 20260906022213 | 90 | 116 | 3.0 | 9.0 | 0.00 | 0.00 | 0.00 | 58 | 1011.5 |
| 20260906021714 | 91 | 117 | 3.0 | 9.0 | 0.00 | 0.00 | 0.00 | 58 | 1011.5 |
| 20260906021003 | 91 | 101 | 3.0 | 6.0 | 0.00 | 0.00 | 0.00 | 57 | 1011.3 |
| 20260906020503 | 91 | 92 | 3.0 | 8.0 | 0.00 | 0.00 | 0.00 | 56 | 1011.2 |
| 20260906020003 | 92 | 83 | 3.0 | 10.0 | 0.00 | 0.00 | 0.00 | 56 | 1011.2 |
| 20260906015503 | 92 | 94 | 4.0 | 10.0 | 0.00 | 0.00 | 0.00 | 55 | 1011.1 |
| 20260906015004 | 92 | 110 | 3.0 | 10.0 | 0.00 | 0.00 | 0.00 | 54 | 1011.0 |
| 20260906014503 | 92 | 100 | 2.0 | 10.0 | 0.00 | 0.00 | 0.00 | 51 | 1010.9 |
| 20260906014003 | 93 | 51 | 1.0 | 2.0 | 0.00 | 0.00 | 0.00 | 49 | 1010.8 |
| 20260906013503 | 93 | 51 | 1.0 | 2.0 | 0.00 | 0.00 | 0.00 | 49 | 1010.6 |
| 20260906013003 | 93 | 50 | 1.0 | 2.0 | 0.00 | 0.00 | 0.00 | 48 | 1010.5 |
| 20260906012503 | 94 | 49 | 0.0 | 2.0 | 0.00 | 0.00 | 0.00 | 48 | 1010.6 |
| 20260906012003 | 94 | 48 | 1.0 | 3.0 | 0.00 | 0.00 | 0.00 | 48 | 1010.4 |
| 20260906011503 | 94 | 45 | 1.0 | 3.0 | 0.00 | 0.00 | 0.00 | 47 | 1010.3 |
| 20260906011003 | 94 | 44 | 1.0 | 4.0 | 0.00 | 0.00 | 0.00 | 47 | 1010.3 |
| 20260906010503 | 95 | 49 | 1.0 | 4.0 | 0.00 | 0.00 | 0.00 | 46 | 1010.3 |
| 20260906010003 | 95 | 59 | 1.0 | 3.0 | 0.00 | 0.00 | 0.00 | 46 | 1010.4 |
| 20260906005503 | 95 | 64 | 1.0 | 4.0 | 0.00 | 0.00 | 0.00 | 46 | 1010.3 |
| 20260906005212 | 95 | 67 | 1.0 | 4.0 | 0.00 | 0.00 | 0.00 | 45 | 1010.3 |
| 20260906004503 | 96 | 67 | 2.0 | 5.0 | 0.00 | 0.00 | 0.00 | 45 | 1010.2 |
| 20260906004003 | 96 | 58 | 2.0 | 5.0 | 0.00 | 0.00 | 0.00 | 44 | 1010.2 |
| 20260906003713 | 96 | 58 | 2.0 | 5.0 | 0.00 | 0.00 | 0.00 | 44 | 1010.3 |
| 20260906003003 | 96 | 59 | 2.0 | 5.0 | 0.00 | 0.00 | 0.00 | 44 | 1010.3 |
| 20260906002503 | 96 | 62 | 1.0 | 5.0 | 0.00 | 0.00 | 0.00 | 44 | 1010.4 |
| 20260906002003 | 96 | 58 | 1.0 | 4.0 | 0.00 | 0.00 | 0.00 | 44 | 1010.3 |
| 20260906001503 | 97 | 56 | 2.0 | 4.0 | 0.00 | 0.00 | 0.00 | 44 | 1010.4 |
| 20260906001003 | 97 | 57 | 2.0 | 4.0 | 0.00 | 0.00 | 0.00 | 44 | 1010.3 |
| 20260906000503 | 97 | 57 | 2.0 | 4.0 | 0.00 | 0.00 | 0.00 | 44 | 1010.3 |
| 20260906000003 | 97 | 59 | 2.0 | 4.0 | 0.00 | 0.00 | 0.00 | 44 | 1010.1 |
| 20260905235503 | 97 | 56 | 2.0 | 5.0 | 0.00 | 0.00 | 0.00 | 44 | 1010.1 |
| 20260905235003 | 97 | 52 | 2.0 | 5.0 | 0.00 | 0.00 | 0.00 | 43 | 1010.1 |
| 20260905234503 | 97 | 57 | 3.0 | 6.0 | 0.00 | 0.00 | 0.00 | 43 | 1010.1 |
| 20260905234003 | 97 | 73 | 2.0 | 6.0 | 0.00 | 0.00 | 0.00 | 44 | 1010.0 |
| 20260905233503 | 98 | 74 | 2.0 | 6.0 | 0.00 | 0.00 | 0.00 | 44 | 1010.1 |
| 20260905233003 | 98 | 60 | 2.0 | 4.0 | 0.00 | 0.00 | 0.00 | 43 | 1010.2 |
| 20260905232713 | 98 | 53 | 2.0 | 7.0 | 0.00 | 0.00 | 0.00 | 43 | 1010.1 |
| 20260905232003 | 98 | 52 | 2.0 | 7.0 | 0.00 | 0.00 | 0.00 | 43 | 1010.1 |
| 20260905231713 | 99 | 46 | 2.0 | 7.0 | 0.00 | 0.00 | 0.00 | 43 | 1010.1 |
| 20260905231003 | 99 | 26 | 1.0 | 3.0 | 0.00 | 0.00 | 0.00 | 42 | 1010.0 |
| 20260905230503 | 99 | 49 | 1.0 | 5.0 | 0.00 | 0.00 | 0.00 | 43 | 1010.1 |
| 20260905230003 | 98 | 82 | 1.0 | 5.0 | 0.00 | 0.00 | 0.00 | 44 | 1010.0 |
| 20260905225713 | 98 | 86 | 2.0 | 5.0 | 0.00 | 0.00 | 0.00 | 43 | 1010.0 |
| 20260905225003 | 99 | 110 | 1.0 | 3.0 | 0.00 | 0.00 | 0.00 | 43 | 1010.1 |
| 20260905224503 | 99 | 112 | 2.0 | 6.0 | 0.00 | 0.00 | 0.00 | 43 | 1010.1 |
| 20260905224214 | 99 | 98 | 2.0 | 8.0 | 0.00 | 0.00 | 0.00 | 43 | 1010.1 |